BEIDOU 6                
1 37210U 10057A   19258.93340769 -.00000119  00000-0  00000-0 0  9994
2 37210   0.9448  54.4498 0004577 135.6844 300.6012  1.00273700 32555
CZ-3C DEB               
1 39338U 10057C   19257.97234856 -.00000174  00000-0 -24785-3 0  9990
2 39338  19.5577 185.5993 7186965 153.3808 276.4544  2.25115817 48749
CZ-3C DEB               
1 39339U 10057D   19256.59341178 -.00000174  00000-0  28249-2 0  9991
2 39339  21.2433 326.9958 7182470 235.1295 334.0163  2.14478997 46328
CZ-3C DEB               
1 39340U 10057E   19255.87439413 -.00000181  00000-0  53082-3 0  9995
2 39340  19.2831 172.9734 7173707 183.7968 164.0984  2.26786854 48914
CZ-3C DEB               
1 39341U 10057F   19257.37862918  .00000122  00000-0  18108-3 0  9997
2 39341  19.3691  46.0869 7026348  68.9894 349.4729  2.53389680 70399
CZ-3C DEB               
1 39342U 10057G   19257.98406612  .00000030  00000-0  31624-3 0  9996
2 39342  19.7516 238.9572 7213322  52.1533  35.9466  2.20569647 47743
CZ-3C DEB               
1 39344U 10057J   19257.43373530  .00000245  00000-0  33786-3 0  9999
2 39344  20.8532  22.9846 7017738  72.3768 348.5029  2.55161316 71821
CZ-3C DEB               
1 39345U 10057K   19258.45317838  .00000165  00000-0  16904-3 0  9996
2 39345  20.6202  21.1591 7037469  82.2649 345.9768  2.54105189 71087
CZ-3C DEB               
1 39346U 10057L   19257.83824647 -.00000020  00000-0  16064-2 0  9996
2 39346  20.6655 276.5491 7183843 335.7682   2.8125  2.17844697 64931
CZ-3C DEB               
1 39347U 10057M   19257.55706853  .00000258  00000-0  27055-3 0  9999
2 39347  20.6238  15.3620 7005256  94.1746 341.6196  2.57608766 72604
CZ-3C DEB               
1 39348U 10057N   19257.91956560 -.00000225  00000-0 -23588-3 0  9995
2 39348  20.1193 162.1285 7216752 185.4726 156.8538  2.25231870 66685
CZ-3C DEB               
1 39349U 10057P   19258.07611213 -.00000093  00000-0  44157-3 0  9994
2 39349  20.1123 175.0613 7143900 159.8445 356.5512  2.28730977 68637
CZ-3C DEB               
1 39350U 10057Q   19257.32910391 -.00000089  00000-0 -13028-3 0  9991
2 39350  19.5454 206.0230 7220274 113.4722   9.3582  2.22446782 44997
CZ-3C DEB               
1 39351U 10057R   19258.45191223  .00000179  00000-0  49291-2 0  9990
2 39351  20.3833 241.3113 7106558  36.6872  52.0127  2.26377719 66879
CZ-3C DEB               
1 39352U 10057S   19256.44307368  .00000118  00000-0  44149-2 0  9997
2 39352  20.8632 270.7892 7192928 341.0849  25.3513  2.17980137 63564
CZ-3C DEB               
1 39353U 10057T   19257.13231514  .00000047  00000-0  86934-3 0  9994
2 39353  19.5831 226.0467 7171706  77.8585   1.4405  2.23966300 48432
CZ-3C DEB               
1 39354U 10057U   19257.13946892  .00000160  00000-0  17863-2 0  9997
2 39354  20.0016 233.5901 7200824  58.1113   3.1436  2.21925820 43926
CZ-3C DEB               
1 39356U 10057W   19254.88610892 -.00000142  00000-0  58908-3 0  9993
2 39356  20.2126 163.1640 7179208 180.7575 176.8591  2.28320585 63482
CZ-3C DEB               
1 39600U 10057X   19255.81644783 -.00000210  00000-0  15411-3 0  9993
2 39600  19.7595 166.2098 7220283 186.5525 152.3556  2.24513762 47688
CZ-3C DEB               
1 40170U 10057Y   19256.57783664  .00000246  00000-0  47162-2 0  9998
2 40170  20.0813 238.7523 7153503  45.9773  48.7968  2.23570638 50471
CZ-3C DEB               
1 40171U 10057Z   19258.45006063  .00004156  00000-0  18479-2 0  9992
2 40171  21.8971 289.2092 5602470  44.9262 348.7406  4.58922794107084
CZ-3C DEB               
1 40174U 10057AC  19252.83737091 -.00000170  00000-0  14919-2 0  9991
2 40174  19.8572 151.4943 7083259 213.2798  22.0047  2.33843346 67805
CZ-3C DEB               
1 40176U 10057AE  19251.69441125 -.00000136  00000-0  10867-1 0  9995
2 40176  20.8575  13.7688 7221070 162.9908 356.8033  2.07898102965414
CZ-3C DEB               
1 40177U 10057AF  19258.28853698 -.00000154  00000-0  49020-3 0  9995
2 40177  17.0872 227.9022 7207052 129.8362 319.3648  2.19560040 52013
CZ-3C DEB               
1 40178U 10057AG  19255.47150690 -.00000063  00000-0  71131-3 0  9993
2 40178  19.5615 346.4135 7223581 238.1488  62.7518  2.09589064 42599
CZ-3C DEB               
1 40818U 10057AK  19257.24700350  .00000033  00000-0  53063-3 0  9995
2 40818  19.9488 235.3410 7130952  54.6014 352.7576  2.25693057 37236
CZ-3C DEB               
1 40819U 10057AL  19255.02076434 -.00000095  00000-0  12062-2 0  9991
2 40819  20.1123 175.0628 7131152 159.6212 257.4637  2.29566319 39704
CZ-3C DEB               
1 40823U 10057AQ  19257.08006793  .00000050  00000-0  39748-3 0  9996
2 40823  20.1386 218.4888 7200459  77.4682 348.3868  2.23388533 37815
CZ-3C DEB               
1 40829U 10057AW  19255.85913826 -.00000163  00000-0  38727-3 0  9991
2 40829  20.7220 131.0877 7123488 228.9334  43.5015  2.34101180 38873
CZ-3C DEB               
1 40832U 10057AZ  19255.92277810 -.00000092  00000-0  19840-3 0  9995
2 40832  19.8417 195.4525 7175889 127.8438 321.1230  2.25752056 37341
CZ-3C DEB               
1 40834U 10057BB  19258.07902631  .00000016  00000-0  76886-3 0  9990
2 40834  20.0773 260.3463 7187936  13.0319 358.5676  2.19619170 36287
CZ-3C DEB               
1 40835U 10057BC  19258.09981476  .00000027  00000-0  39797-3 0  9999
2 40835  19.7472 246.5838 7205718  40.3483 355.2134  2.20210668 36357
CZ-3C DEB               
1 42467U 10057BG  19258.41858972 -.00000164  00000-0 -62495-4 0  9998
2 42467  20.1644  14.9745 4985440  36.0974 349.0038  5.50405221100276
CZ-3C DEB               
1 42469U 10057BJ  19252.80164495 -.00000213  00000-0  36494-3 0  9990
2 42469  20.2262 150.2491 7200671 205.4026  86.6322  2.27793736 54647
CZ-3C DEB               
1 42470U 10057BK  19258.50238441 -.00000621  00000-0 -13781-2 0  9995
2 42470  21.4497 343.5475 6925673 126.2927 318.9848  2.64152085 73660
CZ-3C DEB               
1 44526U 10057BL  19257.40789478 -.00000176  00000-0  51073-3 0  9999
2 44526  21.9499   3.9306 7012648 351.8560   0.9897  2.47545168 34961
CZ-3C DEB               
1 44527U 10057BM  19256.48848160 -.00000018  00000-0  70885-4 0  9999
2 44527  19.6968 217.4567 7192720  89.3185 344.9396  2.23601485 23157